Погода в Тигре

Аргентина     34°25′04″S   58°35′21″W
темп.,
°C
ветер,
м/с
пор.,
м/с
влажн.,
%
обл.,
%
осадки,
мм/ч
давл.,
гПа
погр.,
м
14 августа, вс
вс1400:00+15св412835 0.0 1016252
03:00+14св4128994 0.0 1015283
06:00+13св399587 0.0 1014231
09:00+14св36915 0.0 1014184
12:00+17св477823 0.0 1012413
15:00+19всв486899 0.0 1007394
18:00+19св41174100 0.0 1005228
21:00+17ссв41288100 0.8 1005305
15 августа, пн
пн1500:00+17с41193100 0.7 1003402
03:00+17ссз41098100 1.0 1001307
06:00+16з389998 1.3 1002272
09:00+14ююв71390100 1.4 1005586
12:00+16ю6966100 0.0 1008877
15:00+16ююз5852100 0.1 1008742
18:00+14юз61040100 0.0 10101001
21:00+12юз59360 0.0 1012984
16 августа, вт
вт1600:00+10з36414 0.0 1013237
03:00+9зсз36420 0.0 1012187
06:00+8зсз48415 0.0 1011206
09:00+9сз36365 0.0 1011186
12:00+15зсз46295 0.0 1012514
15:00+18зсз352980 0.0 1009772
18:00+16ссв113662 0.0 100911
21:00+14ссз354085 0.0 101094
17 августа, ср
ср1700:00+12сз254577 0.0 1012134
03:00+11зсз3555100 0.0 1012164
06:00+11зсз225097 0.0 101267
09:00+11юз124588 0.0 101399
12:00+16ююз35497 0.0 1013664
15:00+17ююз3545100 0.0 1011861
18:00+15ююз473737 0.0 1012653
21:00+13ююз6104098 0.0 1016914
18 августа, чт
чт1800:00+11юз4103999 0.0 1017516
03:00+10зюз4939100 0.0 1018531
06:00+8ююз613515 0.0 1020828
09:00+7ююз612550 0.0 1023885
12:00+11ююз79390 0.0 10251648
15:00+12ююз68335 0.0 10252056
18:00+12ююз47340 0.0 10261751
21:00+10ююз24410 0.0 1028161